Temp
-32 -31 -31 -30 -30 -30 -29 -29 -28 -28 -28 -27 -27 -26 -25 -24 -24 -24 -24 -24 -24 -24 -24 -24 -24 -23 -24 -24 -24 -24 -23 -23 -23 -23 -23 -23 -23 -23 -22 -22 -22 -22 -22 -22 -22 -21 -21 -21 -21 -21 -21 -21 -21 -21 -21 -21 -21 -20 -20 -20 -20 -20 -20 -20 -19 -19 -18 -18 -18 -17 -17 -16 -16 -16
-33 -32 -32 -32 -31 -31 -30 -30 -29 -29 -29 -28 -28 -28 -27 -26 -25 -25 -24 -24 -24 -24 -24 -24 -24 -24 -24 -24 -24 -24 -24 -24 -24 -24 -23 -23 -23 -23 -23 -23 -23 -23 -23 -23 -22 -22 -22 -21 -21 -21 -21 -21 -21 -21 -21 -21 -21 -21 -21 -20 -20 -20 -20 -20 -20 -19 -19 -19 -18 -18 -18 -17 -17 -17
-34 -34 -33 -33 -33 -32 -32 -31 -31 -30 -30 -29 -29 -29 -28 -28 -27 -26 -26 -25 -25 -25 -24 -24 -24 -24 -24 -25 -25 -25 -24 -24 -24 -24 -24 -24 -24 -24 -24 -24 -23 -23 -23 -23 -23 -23 -22 -22 -22 -21 -21 -21 -21 -22 -22 -22 -21 -21 -21 -21 -21 -21 -21 -20 -20 -20 -20 -20 -19 -19 -18 -18 -18 -18
-35 -34 -34 -34 -33 -33 -33 -33 -32 -32 -31 -31 -30 -30 -29 -29 -28 -28 -27 -26 -25 -25 -25 -25 -25 -25 -25 -25 -25 -25 -25 -25 -24 -24 -24 -24 -24 -24 -25 -24 -24 -24 -23 -23 -24 -23 -23 -23 -22 -22 -22 -22 -22 -22 -22 -22 -22 -21 -21 -21 -21 -21 -21 -21 -21 -21 -21 -20 -20 -19 -19 -19 -18 -18
-36 -35 -35 -35 -34 -34 -34 -33 -33 -33 -32 -32 -32 -31 -30 -30 -29 -29 -29 -28 -26 -26 -26 -26 -25 -25 -25 -25 -25 -25 -25 -25 -25 -25 -24 -24 -24 -24 -25 -25 -25 -25 -24 -24 -24 -24 -24 -24 -23 -23 -22 -22 -22 -22 -22 -22 -22 -22 -21 -21 -21 -21 -21 -21 -21 -21 -21 -21 -20 -20 -20 -19 -19 -19
-36 -36 -36 -35 -35 -35 -34 -34 -34 -33 -33 -33 -32 -32 -32 -31 -31 -30 -30 -29 -28 -28 -27 -27 -26 -26 -26 -26 -26 -25 -25 -25 -25 -25 -25 -25 -25 -25 -25 -25 -25 -25 -25 -24 -24 -24 -24 -24 -24 -24 -23 -23 -22 -22 -22 -22 -22 -22 -22 -22 -22 -22 -22 -22 -22 -22 -22 -21 -21 -21 -20 -20 -20 -20
-36 -36 -36 -36 -36 -36 -35 -35 -35 -34 -34 -34 -33 -33 -33 -32 -32 -32 -31 -31 -30 -29 -29 -28 -27 -26 -26 -26 -26 -26 -26 -26 -26 -26 -25 -25 -25 -25 -25 -25 -25 -25 -25 -25 -25 -24 -24 -24 -24 -24 -24 -24 -23 -23 -22 -22 -22 -22 -22 -22 -22 -22 -22 -22 -22 -22 -22 -22 -22 -22 -21 -20 -20 -20
-35 -36 -36 -36 -37 -37 -36 -36 -36 -35 -35 -35 -34 -34 -34 -33 -33 -32 -32 -32 -32 -31 -30 -29 -29 -28 -27 -27 -27 -26 -26 -26 -26 -26 -26 -26 -25 -25 -25 -25 -25 -25 -25 -25 -25 -25 -25 -24 -25 -25 -24 -24 -24 -24 -23 -23 -23 -23 -23 -23 -23 -23 -23 -23 -23 -23 -23 -22 -22 -22 -22 -21 -21 -21
-35 -35 -36 -36 -36 -37 -37 -36 -36 -36 -36 -35 -35 -34 -34 -34 -34 -33 -33 -33 -33 -32 -31 -31 -30 -29 -28 -28 -27 -27 -27 -27 -26 -26 -26 -26 -26 -26 -25 -25 -25 -25 -25 -25 -25 -25 -25 -25 -25 -25 -24 -24 -24 -24 -24 -24 -23 -23 -23 -23 -23 -23 -23 -23 -23 -23 -23 -23 -23 -23 -23 -22 -22 -21
-35 -35 -36 -36 -36 -36 -36 -37 -37 -36 -36 -36 -35 -35 -35 -35 -35 -35 -34 -34 -34 -33 -33 -32 -31 -31 -30 -29 -29 -28 -28 -27 -27 -27 -27 -26 -26 -26 -26 -26 -26 -26 -26 -25 -25 -25 -25 -24 -25 -25 -25 -25 -24 -24 -24 -24 -24 -24 -23 -23 -23 -23 -23 -23 -23 -23 -23 -23 -23 -23 -23 -23 -23 -22
-35 -35 -35 -35 -36 -36 -36 -36 -36 -37 -37 -36 -36 -36 -36 -36 -36 -36 -35 -35 -35 -34 -34 -33 -32 -32 -32 -31 -30 -29 -29 -28 -28 -27 -27 -27 -27 -27 -26 -26 -26 -26 -26 -26 -26 -26 -26 -25 -25 -25 -25 -25 -25 -25 -24 -25 -24 -24 -24 -24 -24 -24 -24 -24 -24 -24 -24 -24 -24 -23 -23 -23 -23 -23
-34 -35 -35 -35 -35 -36 -36 -36 -36 -36 -37 -36 -36 -36 -36 -36 -36 -36 -36 -36 -35 -35 -34 -34 -33 -33 -33 -33 -32 -31 -30 -29 -29 -28 -28 -27 -27 -27 -27 -27 -26 -26 -26 -26 -26 -26 -26 -26 -25 -25 -25 -25 -25 -25 -25 -25 -25 -25 -25 -24 -24 -24 -24 -24 -24 -24 -24 -24 -24 -24 -24 -24 -24 -23
-34 -34 -35 -35 -35 -35 -36 -36 -36 -36 -36 -37 -36 -36 -36 -36 -36 -36 -36 -36 -35 -35 -34 -34 -34 -34 -34 -34 -33 -32 -31 -30 -30 -29 -28 -28 -28 -27 -27 -27 -27 -27 -27 -27 -27 -27 -27 -26 -26 -26 -26 -25 -25 -25 -25 -25 -25 -25 -25 -25 -25 -25 -24 -24 -24 -24 -24 -24 -24 -24 -24 -24 -24 -24
-34 -34 -35 -35 -35 -35 -35 -36 -36 -36 -36 -36 -37 -37 -36 -36 -36 -36 -36 -35 -35 -35 -34 -34 -34 -34 -35 -34 -34 -33 -32 -32 -31 -30 -29 -29 -28 -28 -28 -27 -27 -27 -27 -27 -27 -27 -27 -27 -27 -27 -26 -26 -26 -25 -25 -25 -25 -25 -25 -25 -25 -25 -25 -25 -25 -25 -24 -24 -24 -24 -24 -24 -24 -24
-34 -34 -34 -35 -35 -35 -35 -35 -35 -36 -36 -36 -36 -36 -37 -37 -36 -36 -36 -36 -36 -35 -35 -35 -35 -35 -35 -35 -34 -34 -33 -32 -32 -31 -31 -30 -29 -29 -29 -28 -28 -28 -27 -27 -27 -27 -27 -27 -27 -27 -27 -26 -26 -26 -26 -26 -25 -25 -25 -25 -25 -25 -25 -25 -25 -25 -25 -25 -25 -24 -24 -24 -24 -24
-34 -34 -34 -34 -34 -34 -35 -35 -35 -35 -35 -36 -36 -36 -36 -36 -36 -36 -36 -36 -36 -36 -35 -35 -35 -35 -35 -35 -35 -34 -34 -33 -32 -32 -32 -31 -31 -30 -29 -29 -29 -28 -28 -28 -28 -27 -27 -27 -27 -27 -27 -27 -26 -26 -26 -26 -26 -25 -25 -25 -25 -25 -25 -25 -25 -25 -25 -25 -25 -25 -25 -24 -24 -24
-34 -34 -34 -34 -34 -34 -34 -34 -35 -35 -35 -35 -35 -36 -36 -36 -36 -36 -36 -36 -36 -36 -36 -35 -35 -35 -35 -35 -35 -35 -34 -34 -33 -32 -32 -32 -32 -31 -30 -30 -29 -29 -29 -28 -28 -28 -28 -28 -28 -27 -27 -27 -26 -26 -26 -26 -26 -26 -25 -25 -25 -25 -25 -25 -25 -25 -25 -25 -25 -25 -25 -25 -25 -24
-34 -34 -34 -34 -34 -34 -34 -34 -34 -35 -35 -35 -35 -35 -35 -35 -35 -35 -35 -35 -36 -36 -35 -35 -35 -35 -35 -35 -35 -35 -35 -34 -34 -33 -32 -32 -32 -32 -32 -31 -30 -30 -29 -29 -29 -29 -28 -28 -28 -27 -27 -27 -26 -26 -26 -26 -26 -26 -26 -25 -25 -25 -25 -25 -25 -25 -25 -25 -25 -25 -25 -25 -25 -25
-33 -34 -34 -34 -34 -34 -34 -34 -34 -34 -34 -35 -35 -35 -35 -35 -35 -35 -35 -35 -35 -35 -36 -35 -35 -35 -35 -35 -35 -35 -35 -35 -34 -34 -33 -33 -33 -32 -32 -32 -31 -30 -30 -29 -29 -29 -29 -28 -28 -28 -27 -27 -27 -27 -27 -26 -26 -26 -26 -26 -26 -26 -25 -25 -25 -25 -25 -25 -25 -25 -25 -25 -25 -25
-33 -34 -34 -34 -34 -34 -34 -34 -34 -34 -34 -34 -34 -34 -35 -35 -35 -35 -35 -35 -35 -35 -35 -35 -35 -35 -35 -35 -35 -35 -35 -35 -35 -34 -33 -33 -33 -33 -32 -32 -31 -30 -30 -29 -29 -29 -29 -28 -28 -28 -28 -28 -28 -27 -27 -27 -27 -27 -26 -26 -26 -26 -26 -26 -25 -25 -25 -25 -25 -25 -25 -25 -25 -25
-33 -33 -34 -34 -34 -34 -34 -34 -34 -34 -34 -34 -34 -34 -34 -34 -34 -34 -34 -35 -35 -35 -35 -35 -35 -35 -35 -35 -35 -34 -35 -35 -34 -34 -34 -33 -33 -33 -32 -32 -31 -31 -30 -30 -29 -29 -29 -29 -29 -28 -28 -28 -28 -28 -28 -27 -27 -27 -27 -27 -26 -26 -26 -26 -26 -26 -25 -25 -25 -25 -25 -25 -25 -25
-33 -33 -33 -33 -33 -34 -34 -34 -34 -34 -34 -34 -34 -34 -34 -34 -34 -34 -34 -34 -34 -34 -35 -35 -35 -35 -35 -35 -35 -34 -34 -34 -34 -34 -33 -33 -33 -32 -32 -32 -32 -31 -31 -30 -30 -30 -29 -29 -29 -29 -29 -28 -28 -28 -28 -28 -28 -28 -27 -27 -27 -27 -26 -26 -26 -26 -26 -26 -26 -26 -26 -25 -25 -25
-33 -33 -33 -33 -33 -33 -34 -34 -34 -34 -34 -34 -34 -34 -34 -34 -34 -34 -34 -34 -34 -34 -34 -34 -34 -35 -35 -35 -35 -34 -34 -34 -34 -34 -33 -33 -33 -32 -32 -32 -32 -31 -31 -31 -31 -30 -30 -30 -30 -29 -29 -29 -29 -29 -29 -28 -28 -28 -28 -28 -27 -27 -27 -27 -27 -27 -27 -26 -26 -26 -26 -26 -26 -26
-33 -33 -33 -33 -33 -33 -33 -34 -34 -34 -34 -34 -34 -34 -34 -34 -34 -34 -34 -34 -34 -34 -34 -34 -34 -34 -34 -34 -34 -34 -34 -34 -34 -34 -33 -33 -33 -32 -32 -32 -32 -32 -31 -31 -31 -31 -30 -30 -30 -30 -29 -29 -29 -29 -29 -29 -29 -29 -28 -28 -28 -28 -28 -27 -27 -27 -27 -27 -27 -27 -26 -26 -26 -26
-33 -33 -33 -33 -33 -33 -33 -34 -34 -34 -34 -34 -34 -34 -34 -34 -34 -34 -34 -34 -34 -34 -34 -34 -34 -34 -34 -34 -34 -34 -34 -34 -34 -34 -34 -33 -33 -33 -33 -32 -32 -32 -32 -32 -31 -31 -31 -30 -30 -30 -30 -29 -29 -29 -29 -29 -29 -29 -29 -28 -28 -28 -28 -28 -28 -28 -28 -27 -27 -27 -27 -27 -26 -26
-33 -33 -33 -33 -33 -34 -34 -34 -34 -34 -34 -34 -34 -34 -34 -34 -34 -34 -34 -34 -34 -34 -34 -34 -34 -34 -34 -34 -34 -34 -34 -34 -34 -34 -34 -34 -34 -33 -33 -33 -33 -32 -32 -32 -32 -31 -31 -31 -30 -30 -30 -30 -29 -29 -29 -29 -29 -29 -29 -29 -29 -28 -28 -28 -28 -28 -28 -28 -28 -28 -28 -27 -27 -27
-33 -33 -33 -33 -33 -33 -34 -34 -34 -34 -34 -34 -34 -34 -34 -35 -35 -35 -35 -35 -34 -34 -34 -34 -34 -34 -34 -34 -34 -34 -34 -34 -34 -34 -34 -34 -34 -34 -34 -33 -33 -33 -33 -32 -32 -32 -31 -31 -31 -31 -30 -30 -30 -30 -29 -29 -29 -29 -29 -29 -29 -29 -29 -29 -29 -29 -29 -28 -28 -28 -28 -28 -28 -27
-33 -33 -33 -33 -33 -34 -34 -34 -34 -34 -34 -34 -35 -35 -35 -35 -35 -35 -35 -35 -35 -35 -35 -35 -35 -35 -35 -34 -34 -34 -34 -34 -34 -34 -34 -34 -34 -34 -34 -34 -33 -33 -33 -33 -32 -32 -32 -32 -31 -31 -31 -31 -30 -30 -30 -30 -30 -29 -29 -29 -29 -29 -29 -29 -29 -29 -29 -29 -29 -29 -29 -28 -28 -28
-33 -33 -33 -33 -33 -33 -34 -34 -34 -34 -34 -35 -35 -35 -36 -36 -35 -35 -35 -35 -35 -35 -35 -35 -35 -35 -35 -35 -35 -34 -34 -34 -34 -34 -34 -34 -34 -34 -33 -34 -33 -33 -33 -33 -33 -32 -32 -32 -32 -32 -31 -31 -31 -31 -30 -30 -30 -30 -30 -29 -29 -29 -29 -29 -29 -29 -29 -29 -29 -29 -29 -29 -29 -28
-33 -33 -33 -33 -33 -33 -34 -34 -34 -34 -34 -35 -35 -36 -36 -36 -36 -36 -36 -36 -35 -35 -35 -35 -35 -35 -35 -35 -35 -35 -35 -34 -34 -34 -34 -34 -34 -34 -34 -34 -34 -33 -33 -33 -33 -33 -33 -32 -32 -32 -32 -31 -31 -31 -31 -31 -30 -30 -30 -30 -30 -29 -29 -29 -29 -29 -29 -29 -29 -29 -29 -29 -29 -29
-33 -33 -33 -33 -34 -34 -34 -34 -34 -34 -34 -35 -36 -36 -36 -36 -36 -36 -36 -36 -36 -36 -36 -35 -35 -35 -35 -35 -35 -35 -35 -35 -35 -34 -34 -34 -34 -34 -34 -34 -34 -34 -33 -33 -33 -33 -33 -33 -33 -32 -32 -32 -32 -31 -31 -31 -31 -31 -31 -30 -30 -30 -30 -30 -29 -29 -29 -29 -29 -29 -29 -29 -29 -29
-33 -33 -33 -33 -34 -34 -34 -34 -34 -34 -34 -35 -36 -36 -36 -36 -36 -36 -36 -36 -36 -36 -36 -36 -36 -36 -35 -35 -35 -35 -35 -35 -35 -35 -35 -34 -34 -34 -34 -34 -34 -34 -34 -34 -33 -33 -33 -33 -33 -33 -33 -32 -32 -32 -32 -32 -31 -31 -31 -31 -31 -31 -30 -30 -30 -30 -30 -29 -29 -29 -29 -29 -29 -29
-33 -33 -33 -33 -33 -34 -34 -34 -34 -34 -34 -35 -35 -36 -36 -36 -36 -36 -36 -36 -36 -36 -36 -36 -36 -36 -36 -36 -35 -35 -35 -35 -35 -35 -35 -35 -34 -34 -34 -34 -34 -34 -34 -34 -34 -33 -33 -33 -33 -33 -33 -33 -32 -32 -32 -32 -32 -32 -32 -32 -31 -31 -31 -31 -31 -31 -30 -30 -30 -30 -30 -29 -29 -29
-33 -33 -33 -33 -33 -34 -34 -34 -34 -34 -34 -34 -35 -35 -36 -36 -36 -36 -36 -37 -37 -36 -36 -36 -36 -36 -36 -36 -36 -36 -35 -35 -35 -35 -35 -35 -35 -34 -34 -34 -34 -34 -34 -34 -34 -34 -34 -33 -33 -33 -33 -33 -33 -33 -32 -32 -32 -32 -32 -32 -32 -32 -32 -32 -32 -31 -31 -31 -31 -31 -30 -30 -30 -30
-33 -33 -33 -33 -33 -33 -33 -33 -34 -34 -34 -34 -34 -35 -35 -36 -36 -36 -36 -36 -36 -36 -36 -36 -36 -36 -36 -36 -36 -36 -35 -35 -35 -35 -35 -35 -35 -34 -34 -34 -34 -34 -34 -34 -34 -34 -34 -34 -34 -34 -34 -33 -33 -33 -33 -33 -33 -33 -33 -33 -33 -32 -32 -32 -32 -32 -32 -32 -31 -31 -31 -31 -31 -31
-33 -33 -33 -33 -33 -33 -33 -33 -33 -34 -34 -34 -34 -34 -34 -35 -35 -36 -36 -36 -36 -36 -36 -36 -36 -36 -36 -36 -36 -36 -36 -35 -35 -35 -35 -35 -35 -35 -35 -35 -35 -35 -34 -34 -35 -35 -34 -34 -34 -34 -34 -34 -34 -34 -34 -34 -34 -34 -34 -34 -34 -33 -33 -33 -33 -32 -32 -32 -32 -32 -32 -32 -32 -32
-33 -33 -33 -33 -33 -33 -33 -33 -33 -33 -34 -34 -34 -34 -34 -34 -35 -35 -35 -35 -36 -36 -36 -36 -36 -36 -36 -36 -36 -36 -36 -36 -35 -35 -35 -35 -35 -35 -35 -35 -35 -35 -35 -35 -35 -35 -35 -35 -35 -34 -34 -34 -34 -34 -35 -35 -35 -35 -35 -35 -35 -34 -34 -34 -33 -33 -33 -33 -33 -33 -33 -33 -33 -33
-33 -33 -33 -33 -33 -33 -33 -33 -33 -33 -33 -33 -34 -34 -34 -34 -34 -35 -35 -35 -35 -35 -35 -35 -35 -35 -35 -35 -35 -35 -35 -35 -35 -35 -35 -35 -35 -35 -35 -35 -35 -35 -35 -35 -35 -35 -34 -34 -34 -34 -34 -34 -34 -35 -35 -35 -35 -35 -35 -35 -35 -35 -35 -34 -34 -34 -34 -34 -34 -34 -34 -34 -34 -34
-32 -33 -33 -33 -33 -33 -33 -33 -33 -33 -33 -33 -33 -33 -34 -34 -34 -34 -34 -35 -35 -35 -35 -35 -35 -35 -35 -35 -35 -35 -35 -35 -35 -35 -35 -35 -35 -35 -35 -35 -35 -35 -34 -34 -34 -34 -34 -34 -34 -34 -34 -34 -34 -34 -34 -34 -34 -35 -35 -34 -34 -34 -35 -35 -35 -35 -35 -35 -35 -35 -35 -35 -35 -35
-32 -32 -32 -32 -32 -32 -33 -33 -33 -33 -33 -33 -33 -33 -33 -33 -33 -34 -34 -34 -34 -34 -34 -34 -35 -35 -35 -35 -35 -35 -35 -35 -35 -35 -34 -34 -34 -34 -34 -34 -34 -34 -34 -34 -34 -34 -34 -34 -34 -33 -33 -33 -33 -33 -34 -34 -34 -34 -34 -34 -34 -34 -35 -35 -35 -35 -35 -35 -35 -35 -35 -35 -35 -35
-32 -32 -32 -32 -32 -32 -32 -32 -32 -32 -33 -33 -33 -33 -33 -33 -33 -33 -33 -33 -33 -34 -34 -34 -34 -34 -34 -34 -34 -34 -34 -34 -34 -34 -34 -34 -34 -34 -34 -34 -34 -34 -33 -33 -33 -33 -33 -33 -33 -33 -33 -33 -33 -33 -33 -33 -34 -34 -34 -34 -34 -34 -34 -34 -34 -34 -34 -35 -35 -35 -35 -35 -35 -35
-32 -32 -32 -32 -32 -32 -32 -32 -32 -32 -32 -32 -32 -32 -32 -32 -33 -33 -33 -33 -33 -33 -33 -33 -33 -33 -33 -34 -34 -34 -34 -34 -34 -34 -34 -33 -33 -33 -33 -33 -33 -33 -33 -33 -33 -33 -33 -33 -33 -33 -33 -33 -33 -33 -33 -34 -34 -34 -34 -34 -34 -34 -34 -34 -34 -34 -34 -35 -35 -35 -35 -35 -35 -35
-31 -31 -31 -31 -31 -31 -31 -31 -31 -31 -32 -32 -32 -32 -32 -32 -32 -32 -32 -32 -32 -33 -33 -33 -33 -33 -33 -33 -33 -33 -33 -33 -33 -33 -33 -33 -33 -33 -32 -32 -32 -32 -32 -32 -32 -32 -32 -32 -32 -32 -32 -33 -33 -33 -33 -34 -34 -34 -34 -35 -35 -35 -35 -35 -35 -35 -35 -35 -35 -35 -35 -35 -35 -35
-31 -31 -31 -31 -31 -31 -31 -31 -31 -31 -31 -31 -31 -31 -31 -31 -32 -32 -32 -32 -32 -32 -32 -32 -32 -32 -32 -32 -32 -32 -32 -32 -32 -32 -32 -32 -32 -32 -32 -32 -32 -32 -32 -32 -32 -32 -32 -32 -32 -32 -32 -32 -33 -33 -33 -34 -34 -34 -34 -35 -35 -35 -35 -35 -35 -35 -35 -35 -35 -35 -35 -35 -35 -35
-31 -31 -31 -31 -31 -31 -31 -31 -31 -31 -31 -31 -31 -31 -31 -31 -31 -31 -31 -31 -31 -31 -31 -31 -31 -31 -31 -32 -32 -32 -32 -32 -32 -32 -32 -32 -32 -32 -32 -32 -32 -32 -32 -32 -32 -32 -32 -32 -32 -32 -32 -33 -33 -33 -33 -34 -34 -34 -34 -35 -35 -35 -35 -35 -35 -35 -35 -35 -36 -36 -36 -36 -36 -36
Height
5291 5295 5299 5302 5306 5311 5314 5319 5324 5330 5335 5341 5347 5354 5361 5369 5375 5384 5394 5403 5412 5423 5433 5440 5449 5460 5468 5474 5481 5488 5495 5503 5507 5510 5515 5522 5529 5535 5540 5545 5550 5555 5559 5564 5568 5572 5576 5580 5585 5591 5596 5601 5605 5609 5613 5616 5620 5624 5628 5632 5636 5640 5644 5647 5651 5654 5657 5660 5664 5668 5671 5675 5679 5683
5279 5283 5286 5288 5292 5297 5300 5305 5311 5315 5321 5327 5333 5339 5345 5351 5358 5367 5376 5386 5397 5407 5417 5426 5436 5445 5453 5460 5468 5475 5482 5491 5495 5497 5503 5511 5518 5525 5530 5535 5540 5545 5550 5555 5558 5562 5566 5571 5576 5581 5587 5592 5596 5600 5604 5608 5611 5615 5620 5624 5628 5632 5636 5639 5642 5646 5649 5652 5656 5660 5664 5668 5672 5675
5270 5273 5276 5277 5280 5285 5289 5293 5297 5301 5307 5313 5319 5325 5331 5336 5343 5352 5359 5368 5381 5391 5400 5412 5422 5430 5438 5446 5454 5462 5469 5477 5481 5485 5492 5500 5507 5514 5519 5525 5529 5534 5540 5546 5550 5554 5558 5562 5567 5572 5577 5582 5587 5591 5595 5599 5603 5607 5611 5616 5619 5623 5627 5631 5634 5638 5641 5644 5648 5652 5656 5660 5664 5668
5263 5265 5267 5269 5273 5276 5279 5283 5286 5290 5296 5302 5308 5313 5318 5323 5330 5338 5344 5351 5366 5377 5385 5395 5405 5413 5422 5429 5438 5448 5456 5462 5467 5473 5481 5488 5495 5501 5507 5514 5519 5523 5530 5536 5541 5546 5549 5553 5558 5563 5568 5573 5577 5582 5586 5590 5594 5598 5603 5607 5611 5615 5618 5622 5626 5630 5633 5636 5640 5644 5648 5652 5656 5660
5258 5259 5261 5263 5266 5268 5270 5274 5277 5282 5287 5292 5297 5302 5306 5313 5319 5326 5332 5339 5352 5364 5370 5377 5387 5397 5407 5414 5423 5434 5442 5449 5455 5462 5470 5477 5483 5490 5497 5504 5509 5514 5520 5526 5532 5537 5541 5545 5549 5553 5558 5563 5567 5572 5577 5581 5585 5589 5594 5598 5602 5606 5610 5614 5618 5622 5625 5629 5632 5636 5639 5643 5647 5651
5254 5255 5257 5259 5260 5262 5264 5268 5271 5275 5280 5284 5289 5293 5298 5305 5310 5317 5323 5329 5340 5350 5355 5361 5371 5382 5392 5401 5410 5420 5429 5438 5445 5451 5459 5466 5473 5480 5487 5493 5499 5505 5510 5515 5521 5527 5532 5537 5540 5544 5548 5553 5557 5562 5567 5572 5577 5581 5585 5590 5594 5598 5602 5605 5609 5613 5617 5621 5624 5627 5631 5635 5639 5642
5251 5253 5254 5255 5256 5258 5260 5263 5266 5269 5273 5277 5282 5287 5291 5297 5303 5309 5314 5321 5329 5336 5342 5349 5358 5368 5378 5387 5397 5407 5416 5424 5431 5438 5445 5454 5461 5469 5475 5481 5488 5495 5500 5505 5511 5516 5522 5528 5531 5535 5539 5544 5548 5552 5557 5563 5567 5572 5577 5581 5586 5590 5593 5597 5601 5605 5609 5613 5616 5619 5622 5625 5630 5634
5249 5250 5252 5253 5254 5255 5257 5260 5262 5265 5268 5272 5276 5281 5285 5290 5296 5301 5307 5314 5319 5324 5331 5339 5346 5355 5365 5375 5384 5393 5401 5409 5418 5425 5433 5441 5449 5456 5463 5470 5477 5483 5489 5494 5499 5505 5512 5517 5522 5526 5530 5535 5540 5544 5548 5553 5557 5563 5567 5572 5577 5581 5585 5589 5592 5596 5600 5604 5608 5612 5614 5617 5620 5625
5247 5248 5249 5251 5252 5253 5255 5257 5260 5262 5265 5268 5272 5276 5280 5284 5290 5295 5300 5306 5311 5316 5323 5329 5336 5344 5353 5362 5371 5380 5388 5396 5404 5412 5421 5429 5437 5444 5452 5459 5465 5471 5477 5482 5488 5494 5501 5507 5511 5516 5521 5526 5531 5536 5539 5543 5547 5552 5557 5562 5568 5572 5576 5581 5584 5588 5592 5596 5599 5603 5607 5609 5611 5615
5244 5246 5247 5249 5250 5252 5253 5255 5257 5260 5262 5265 5268 5272 5275 5280 5285 5289 5294 5299 5304 5309 5314 5320 5327 5335 5342 5349 5358 5367 5375 5384 5392 5400 5410 5418 5425 5433 5441 5448 5454 5460 5465 5471 5477 5483 5490 5497 5502 5507 5512 5518 5523 5527 5531 5534 5538 5543 5547 5552 5558 5563 5567 5571 5576 5579 5583 5587 5590 5594 5598 5601 5603 5606
5243 5244 5245 5247 5248 5250 5252 5253 5255 5257 5259 5262 5265 5268 5272 5276 5280 5284 5289 5293 5296 5301 5307 5312 5320 5328 5333 5339 5346 5354 5362 5371 5380 5388 5397 5406 5415 5423 5431 5438 5445 5451 5456 5461 5467 5472 5479 5486 5492 5498 5503 5509 5514 5519 5523 5526 5530 5534 5539 5543 5548 5553 5557 5561 5566 5570 5573 5577 5581 5584 5588 5591 5594 5597
5242 5243 5244 5245 5246 5248 5250 5252 5253 5255 5257 5260 5262 5265 5269 5272 5276 5279 5283 5286 5290 5295 5301 5307 5314 5321 5326 5331 5337 5343 5350 5360 5369 5377 5386 5396 5404 5412 5420 5427 5434 5440 5446 5452 5458 5463 5469 5475 5482 5488 5493 5499 5504 5509 5513 5517 5521 5525 5530 5535 5539 5543 5547 5551 5555 5560 5564 5568 5571 5574 5578 5581 5585 5588
5241 5242 5243 5244 5245 5247 5248 5250 5251 5253 5255 5258 5260 5263 5266 5269 5272 5275 5278 5282 5286 5292 5297 5303 5309 5315 5320 5325 5329 5335 5342 5351 5359 5366 5375 5384 5392 5401 5408 5415 5422 5428 5434 5440 5447 5453 5460 5466 5471 5477 5482 5488 5493 5498 5502 5508 5513 5517 5521 5526 5530 5533 5537 5541 5545 5549 5554 5558 5562 5565 5568 5572 5575 5578
5240 5241 5242 5243 5244 5245 5247 5248 5250 5252 5253 5256 5258 5260 5263 5266 5269 5272 5275 5279 5283 5288 5294 5299 5304 5309 5315 5319 5324 5330 5337 5343 5349 5356 5364 5373 5381 5389 5397 5403 5409 5416 5422 5428 5435 5441 5448 5455 5460 5465 5471 5477 5482 5487 5492 5498 5504 5509 5512 5516 5520 5524 5527 5530 5534 5538 5542 5547 5552 5555 5558 5562 5565 5569
5240 5240 5241 5242 5243 5244 5246 5247 5249 5250 5252 5254 5256 5258 5261 5263 5266 5269 5272 5276 5280 5284 5289 5294 5299 5304 5309 5314 5319 5324 5329 5335 5341 5349 5356 5363 5370 5378 5386 5393 5399 5406 5413 5419 5425 5431 5437 5443 5449 5455 5460 5466 5471 5477 5483 5489 5494 5499 5503 5506 5509 5513 5516 5520 5524 5528 5531 5536 5541 5545 5549 5552 5556 5559
5239 5240 5241 5242 5243 5244 5245 5246 5248 5249 5251 5253 5254 5256 5258 5260 5263 5265 5268 5272 5276 5280 5284 5289 5294 5299 5304 5309 5313 5318 5322 5327 5333 5340 5347 5354 5361 5368 5375 5382 5389 5395 5402 5408 5414 5420 5426 5432 5439 5445 5450 5455 5461 5466 5472 5478 5483 5488 5492 5495 5498 5501 5505 5509 5514 5518 5522 5525 5530 5534 5539 5543 5546 5549
5239 5240 5241 5242 5243 5244 5245 5246 5247 5248 5250 5251 5253 5254 5256 5258 5260 5263 5265 5268 5272 5275 5279 5283 5289 5294 5299 5303 5308 5312 5315 5320 5325 5331 5339 5346 5352 5358 5364 5371 5377 5383 5389 5396 5402 5407 5413 5420 5427 5433 5439 5444 5450 5455 5460 5466 5471 5476 5481 5484 5488 5491 5495 5500 5504 5508 5512 5516 5519 5524 5528 5532 5536 5539
5239 5240 5241 5241 5242 5243 5244 5245 5246 5247 5249 5250 5251 5253 5254 5256 5258 5260 5263 5266 5268 5271 5274 5278 5283 5288 5293 5297 5302 5306 5309 5313 5318 5324 5331 5337 5343 5349 5353 5359 5365 5372 5377 5383 5389 5395 5401 5408 5416 5423 5429 5434 5439 5445 5449 5455 5460 5464 5468 5473 5477 5481 5485 5490 5494 5498 5502 5506 5510 5514 5518 5521 5525 5528
5240 5240 5241 5242 5242 5243 5244 5245 5246 5247 5248 5249 5250 5251 5253 5255 5256 5258 5260 5263 5265 5268 5271 5274 5278 5282 5286 5290 5294 5299 5303 5307 5310 5315 5321 5327 5332 5338 5342 5347 5354 5360 5365 5371 5379 5386 5392 5399 5406 5413 5419 5424 5429 5434 5439 5444 5449 5453 5457 5462 5466 5471 5475 5480 5483 5487 5491 5495 5499 5503 5507 5510 5514 5517
5240 5241 5242 5242 5243 5243 5244 5245 5245 5246 5247 5248 5249 5250 5252 5253 5255 5256 5258 5260 5263 5265 5267 5270 5273 5276 5280 5283 5287 5292 5296 5299 5302 5307 5312 5317 5323 5328 5333 5339 5345 5351 5357 5364 5372 5379 5385 5391 5397 5403 5409 5414 5419 5425 5430 5435 5439 5443 5447 5451 5456 5460 5465 5469 5473 5477 5481 5485 5489 5492 5496 5500 5503 5506
5241 5242 5242 5243 5243 5244 5244 5245 5245 5246 5247 5247 5248 5249 5250 5251 5253 5255 5256 5258 5260 5262 5264 5267 5270 5272 5275 5278 5281 5286 5290 5292 5295 5299 5305 5311 5318 5323 5328 5334 5340 5347 5352 5359 5366 5373 5379 5384 5389 5394 5400 5405 5410 5415 5420 5425 5429 5433 5436 5441 5445 5449 5453 5458 5462 5466 5471 5475 5478 5482 5485 5489 5492 5494
5242 5243 5243 5243 5244 5244 5245 5245 5246 5246 5247 5247 5248 5249 5249 5250 5252 5253 5254 5256 5257 5259 5261 5264 5266 5268 5271 5274 5277 5281 5284 5287 5290 5295 5301 5307 5312 5317 5323 5329 5335 5341 5346 5352 5358 5365 5371 5375 5380 5385 5391 5395 5399 5404 5409 5414 5418 5422 5426 5430 5434 5438 5443 5447 5451 5455 5459 5463 5467 5471 5475 5478 5481 5483
5243 5243 5243 5244 5244 5244 5244 5245 5245 5246 5246 5247 5247 5248 5249 5250 5251 5252 5253 5254 5255 5257 5259 5261 5263 5265 5268 5270 5273 5277 5280 5283 5287 5292 5297 5301 5305 5312 5318 5323 5328 5334 5340 5345 5349 5354 5361 5366 5370 5376 5381 5384 5389 5394 5399 5403 5407 5411 5416 5420 5424 5428 5432 5436 5439 5443 5448 5452 5456 5460 5463 5467 5470 5472
5244 5244 5244 5244 5244 5244 5244 5244 5244 5245 5245 5245 5246 5246 5247 5248 5249 5249 5250 5251 5253 5254 5256 5258 5260 5262 5264 5267 5270 5273 5276 5279 5283 5288 5292 5296 5301 5306 5311 5316 5323 5329 5334 5337 5339 5344 5351 5356 5360 5365 5370 5374 5378 5385 5390 5394 5398 5402 5406 5411 5415 5419 5422 5425 5429 5433 5437 5441 5445 5448 5451 5455 5459 5462
5244 5244 5244 5243 5243 5243 5243 5243 5243 5243 5243 5243 5244 5244 5245 5245 5245 5246 5248 5249 5250 5251 5253 5255 5257 5259 5262 5264 5267 5269 5273 5276 5279 5283 5287 5291 5296 5300 5305 5311 5316 5321 5326 5329 5331 5335 5342 5347 5352 5357 5361 5365 5371 5377 5382 5385 5389 5394 5398 5402 5406 5409 5412 5416 5419 5423 5426 5430 5434 5437 5440 5443 5447 5452
5243 5243 5243 5243 5242 5242 5242 5241 5241 5241 5241 5241 5241 5241 5242 5242 5242 5242 5244 5245 5247 5249 5251 5253 5255 5257 5259 5262 5264 5267 5270 5272 5276 5280 5283 5287 5291 5295 5300 5305 5309 5313 5317 5320 5323 5328 5334 5340 5344 5349 5354 5358 5363 5369 5373 5376 5381 5385 5389 5393 5397 5400 5403 5406 5409 5413 5416 5419 5422 5426 5429 5431 5435 5440
5242 5242 5241 5241 5241 5240 5240 5239 5239 5238 5237 5237 5236 5236 5237 5237 5237 5238 5239 5241 5243 5245 5248 5250 5253 5255 5258 5260 5262 5264 5267 5269 5273 5276 5280 5284 5287 5290 5294 5298 5302 5306 5309 5312 5317 5323 5328 5332 5337 5341 5345 5349 5354 5360 5363 5367 5371 5375 5378 5382 5386 5389 5392 5396 5398 5401 5405 5408 5411 5415 5418 5420 5422 5426
5241 5241 5240 5240 5239 5239 5238 5237 5236 5235 5234 5232 5231 5230 5229 5230 5231 5232 5234 5237 5239 5241 5244 5247 5250 5253 5255 5257 5259 5262 5264 5267 5270 5273 5276 5280 5283 5286 5290 5293 5297 5300 5304 5308 5313 5317 5321 5326 5329 5333 5336 5340 5345 5350 5353 5356 5360 5363 5366 5370 5374 5378 5381 5384 5387 5390 5394 5397 5400 5403 5405 5407 5411 5413
5240 5240 5239 5238 5238 5237 5236 5235 5234 5232 5230 5228 5225 5222 5221 5222 5223 5225 5229 5232 5234 5237 5240 5244 5247 5249 5252 5254 5257 5259 5262 5264 5268 5271 5274 5277 5280 5284 5287 5290 5293 5297 5300 5304 5308 5311 5315 5319 5322 5324 5328 5332 5336 5340 5343 5346 5349 5352 5354 5359 5363 5366 5369 5373 5375 5378 5382 5385 5387 5390 5391 5394 5398 5401
5239 5238 5238 5237 5236 5236 5234 5233 5231 5229 5226 5222 5219 5216 5215 5215 5217 5219 5223 5226 5230 5234 5237 5240 5243 5246 5248 5251 5254 5256 5259 5262 5266 5268 5271 5274 5277 5281 5284 5287 5290 5293 5296 5299 5303 5306 5310 5313 5315 5318 5321 5324 5327 5331 5334 5337 5339 5342 5345 5348 5352 5355 5358 5361 5364 5366 5370 5372 5373 5376 5378 5380 5384 5387
5238 5237 5237 5236 5235 5234 5233 5232 5230 5227 5223 5218 5215 5213 5212 5212 5213 5215 5219 5222 5226 5230 5233 5236 5239 5242 5245 5248 5251 5253 5257 5260 5263 5266 5269 5272 5275 5278 5281 5284 5287 5290 5293 5296 5298 5301 5305 5307 5309 5312 5315 5317 5320 5323 5325 5327 5330 5333 5335 5338 5340 5344 5347 5349 5351 5354 5357 5358 5360 5362 5364 5367 5370 5373
5238 5237 5236 5235 5235 5234 5232 5231 5228 5226 5222 5217 5213 5211 5210 5210 5211 5213 5216 5219 5222 5226 5229 5232 5235 5238 5241 5244 5247 5250 5254 5257 5260 5263 5266 5269 5272 5275 5278 5281 5284 5287 5289 5292 5295 5297 5300 5302 5304 5306 5309 5311 5313 5315 5317 5319 5322 5325 5326 5327 5330 5333 5336 5337 5339 5341 5343 5345 5347 5350 5352 5354 5357 5359
5238 5237 5236 5235 5234 5233 5232 5230 5228 5225 5222 5218 5215 5212 5211 5210 5211 5212 5214 5217 5220 5223 5226 5230 5232 5235 5238 5242 5245 5248 5251 5254 5257 5260 5264 5267 5269 5272 5275 5278 5281 5283 5286 5288 5290 5293 5295 5297 5299 5300 5303 5305 5307 5308 5310 5312 5315 5316 5318 5318 5320 5323 5325 5326 5326 5328 5330 5331 5334 5337 5339 5341 5344 5346
5238 5237 5236 5235 5234 5233 5231 5230 5228 5226 5224 5221 5217 5215 5213 5212 5212 5213 5214 5216 5219 5222 5224 5227 5230 5233 5236 5239 5243 5246 5249 5252 5255 5258 5261 5264 5267 5270 5273 5275 5277 5280 5282 5284 5286 5288 5289 5291 5293 5294 5296 5298 5300 5301 5303 5305 5307 5308 5308 5309 5311 5313 5314 5315 5315 5317 5318 5319 5321 5324 5326 5329 5331 5333
5239 5238 5237 5235 5234 5233 5232 5230 5229 5227 5225 5223 5221 5218 5216 5215 5214 5215 5216 5217 5219 5221 5224 5226 5228 5231 5234 5237 5241 5244 5247 5249 5252 5255 5258 5261 5264 5267 5269 5272 5274 5276 5278 5280 5281 5283 5284 5286 5287 5288 5290 5291 5292 5294 5296 5297 5299 5299 5300 5301 5302 5303 5303 5304 5304 5305 5307 5308 5310 5313 5315 5317 5319 5320
5239 5238 5237 5236 5235 5234 5233 5231 5230 5228 5227 5225 5224 5222 5220 5219 5218 5218 5218 5219 5220 5222 5224 5226 5228 5231 5233 5236 5239 5242 5244 5247 5250 5253 5256 5258 5261 5263 5266 5269 5271 5272 5274 5276 5277 5278 5279 5281 5281 5282 5284 5285 5286 5288 5290 5290 5291 5292 5292 5293 5293 5293 5294 5294 5294 5295 5297 5299 5300 5302 5304 5306 5307 5308
5240 5239 5238 5237 5236 5235 5234 5232 5231 5229 5228 5227 5226 5225 5224 5223 5222 5222 5222 5222 5223 5224 5226 5227 5229 5231 5233 5235 5237 5240 5242 5245 5248 5250 5253 5255 5258 5260 5263 5265 5267 5269 5270 5272 5273 5273 5274 5275 5276 5277 5278 5279 5280 5282 5284 5284 5284 5284 5285 5285 5284 5284 5284 5284 5285 5287 5289 5290 5291 5291 5292 5293 5294 5295
5241 5240 5239 5238 5237 5236 5235 5234 5232 5231 5230 5229 5228 5227 5227 5226 5226 5225 5225 5226 5226 5227 5228 5229 5230 5232 5234 5235 5237 5239 5241 5244 5246 5248 5251 5253 5255 5258 5260 5262 5264 5266 5267 5268 5269 5269 5270 5271 5271 5272 5272 5273 5274 5276 5277 5277 5277 5277 5276 5276 5276 5276 5276 5277 5278 5279 5280 5280 5280 5280 5280 5281 5282 5283
5241 5240 5239 5238 5237 5237 5236 5235 5234 5233 5232 5231 5230 5229 5229 5228 5228 5228 5228 5228 5229 5230 5230 5231 5233 5234 5235 5237 5238 5240 5242 5244 5246 5248 5250 5252 5254 5256 5258 5259 5261 5262 5263 5264 5265 5265 5265 5266 5267 5266 5266 5266 5267 5269 5270 5270 5270 5270 5270 5269 5270 5270 5271 5270 5270 5270 5270 5270 5270 5270 5270 5270 5271 5272
5241 5240 5239 5239 5238 5237 5236 5236 5235 5234 5234 5233 5232 5231 5231 5230 5230 5230 5230 5230 5231 5231 5232 5233 5234 5235 5237 5238 5239 5241 5242 5244 5246 5247 5249 5250 5252 5254 5255 5257 5258 5258 5259 5260 5261 5261 5261 5261 5261 5261 5260 5260 5261 5263 5263 5263 5264 5265 5265 5264 5263 5263 5263 5262 5261 5261 5261 5261 5261 5261 5261 5262 5262 5263
5241 5240 5239 5239 5238 5237 5237 5236 5236 5235 5235 5234 5234 5233 5233 5232 5232 5232 5232 5232 5232 5233 5233 5234 5235 5236 5237 5238 5239 5241 5242 5243 5245 5246 5247 5249 5250 5251 5252 5253 5254 5255 5256 5256 5257 5257 5257 5256 5256 5256 5256 5256 5256 5257 5256 5257 5258 5259 5258 5256 5255 5254 5253 5253 5253 5253 5253 5254 5253 5253 5254 5254 5254 5254
5240 5240 5239 5239 5238 5238 5237 5237 5236 5236 5235 5235 5235 5234 5234 5234 5233 5233 5233 5234 5234 5234 5235 5235 5236 5236 5237 5238 5239 5240 5241 5242 5243 5244 5245 5247 5248 5248 5249 5250 5251 5251 5252 5252 5252 5252 5252 5252 5251 5251 5251 5251 5250 5250 5250 5250 5250 5250 5249 5248 5246 5245 5245 5245 5245 5245 5245 5245 5245 5245 5246 5245 5245 5245
5240 5240 5239 5239 5238 5238 5238 5237 5237 5236 5236 5236 5235 5235 5235 5235 5234 5234 5235 5235 5235 5235 5235 5236 5236 5237 5237 5238 5239 5240 5241 5241 5242 5243 5244 5244 5245 5246 5246 5247 5247 5248 5248 5248 5248 5248 5247 5247 5246 5246 5245 5245 5244 5243 5243 5243 5242 5241 5240 5240 5238 5237 5237 5237 5237 5236 5236 5237 5237 5237 5236 5235 5235 5236
5240 5239 5239 5239 5239 5238 5238 5238 5237 5237 5237 5236 5236 5236 5235 5235 5235 5235 5235 5235 5235 5236 5236 5236 5237 5237 5238 5238 5239 5239 5240 5241 5241 5242 5242 5243 5243 5244 5244 5244 5244 5245 5245 5245 5244 5244 5243 5242 5242 5241 5240 5239 5237 5236 5236 5235 5233 5232 5232 5231 5230 5230 5229 5228 5228 5227 5227 5228 5228 5227 5226 5225 5225 5225
5239 5239 5239 5239 5239 5238 5238 5238 5238 5237 5237 5237 5236 5236 5236 5236 5236 5236 5235 5236 5236 5236 5236 5236 5237 5237 5237 5238 5238 5238 5239 5239 5240 5240 5240 5241 5241 5241 5241 5241 5241 5241 5241 5241 5240 5239 5238 5237 5237 5235 5234 5233 5231 5230 5229 5227 5226 5225 5224 5223 5222 5221 5219 5218 5219 5218 5219 5220 5219 5217 5216 5215 5215 5215
Wind_Speed
80 82 84 87 89 92 94 96 97 99 101 103 106 109 113 117 119 121 123 124 123 120 117 115 113 111 108 105 103 101 99 97 96 96 96 95 93 91 89 88 87 86 85 84 84 84 84 84 83 81 80 79 77 77 76 76 76 76 76 75 74 73 73 72 71 71 72 73 74 74 74 74 74 73
68 70 72 76 80 84 87 89 91 94 96 97 99 102 105 109 112 114 118 121 123 122 120 116 114 112 109 107 105 103 101 99 98 98 97 96 94 92 91 90 88 87 86 84 84 84 85 85 84 83 82 81 80 79 78 78 77 77 76 76 75 74 73 73 72 71 71 72 72 73 73 73 73 73
57 59 62 66 70 72 75 78 82 85 88 90 93 96 99 102 104 107 111 116 120 122 122 119 116 113 111 109 106 104 103 101 101 100 98 96 95 93 92 91 90 89 87 85 83 83 83 84 85 84 84 83 82 81 80 79 79 79 78 76 76 75 74 73 73 73 72 72 72 72 72 72 72 72
46 50 53 57 60 62 65 68 72 76 79 82 85 89 93 95 98 101 104 109 114 118 121 121 119 116 113 110 108 106 104 103 103 102 100 98 96 94 92 92 92 91 89 86 84 82 82 82 83 84 84 84 83 82 82 81 81 80 80 78 77 76 75 74 73 72 71 72 73 73 72 72 72 71
35 39 43 46 49 53 57 60 63 67 70 73 77 81 85 89 92 94 97 102 106 111 116 121 121 119 116 113 110 108 106 104 103 103 102 100 98 96 94 92 91 90 90 89 87 84 82 81 82 83 84 84 84 84 84 83 82 82 81 80 78 77 75 74 73 72 71 71 72 73 73 73 72 71
28 30 32 35 39 43 47 51 55 58 61 65 68 72 76 80 83 86 89 94 97 101 108 115 120 121 119 116 113 110 108 106 104 103 103 101 100 99 97 95 92 90 90 90 90 90 86 82 81 82 84 84 85 86 86 85 84 83 82 81 80 78 77 75 74 73 72 72 71 72 73 73 72 71
25 25 25 26 30 34 37 41 45 49 53 57 60 63 67 71 74 76 80 83 87 92 98 105 113 118 119 117 115 112 110 108 106 104 103 103 102 100 99 99 97 94 91 89 89 91 90 87 85 84 84 85 85 86 86 86 85 84 83 82 81 80 78 77 76 75 73 72 72 72 73 74 73 71
23 22 22 23 25 28 31 34 37 42 45 49 52 55 58 62 65 67 70 73 77 83 88 94 102 109 114 116 116 115 112 110 108 106 104 103 103 102 101 100 99 98 97 93 89 88 87 87 88 87 85 84 85 85 85 85 85 84 84 83 82 81 80 78 77 76 75 74 73 72 73 74 75 73
21 22 22 23 24 26 27 28 31 35 39 42 45 48 51 54 56 59 61 64 67 73 78 84 90 97 103 109 112 114 114 112 110 108 106 104 103 103 103 102 101 100 100 99 96 93 89 85 86 88 88 85 84 84 85 84 84 84 84 83 82 81 81 80 79 78 76 75 74 74 74 74 76 75
21 22 22 23 24 25 24 25 28 30 33 37 40 43 45 47 49 52 54 56 60 64 69 75 80 84 89 97 104 108 111 113 112 110 107 105 104 103 103 103 102 101 102 102 101 100 97 92 87 86 87 88 86 84 84 84 85 84 84 84 83 82 81 80 79 79 78 77 76 76 75 75 76 76
19 20 21 22 23 23 23 24 26 28 30 33 36 39 41 43 46 48 50 53 56 60 64 68 71 71 73 81 91 99 105 109 111 111 109 107 105 104 103 102 102 101 102 102 102 101 100 98 94 89 86 87 87 86 83 82 82 83 83 83 83 82 82 81 80 80 79 79 78 78 77 77 78 78
16 17 19 20 21 22 23 24 25 26 27 30 32 36 39 42 45 47 50 54 57 59 60 63 64 63 61 64 74 86 95 101 106 109 110 108 106 105 103 102 102 102 101 100 100 100 99 98 98 95 91 88 87 87 84 82 81 81 82 83 83 83 83 82 82 81 80 80 80 80 80 79 79 79
14 16 17 18 19 21 23 25 26 26 27 27 29 32 36 41 45 48 51 54 55 56 57 59 62 61 57 58 65 73 82 91 98 103 107 108 107 106 105 104 103 102 101 99 98 97 96 94 95 95 95 94 91 89 87 85 84 84 85 85 85 85 84 84 83 82 82 81 81 82 82 81 81 80
13 15 16 17 18 19 21 22 24 25 27 28 29 31 32 36 40 44 48 50 52 53 54 57 61 62 60 60 64 68 73 81 88 95 100 104 105 105 104 105 104 103 102 100 99 96 93 92 93 93 93 94 94 92 90 88 87 87 86 86 86 85 85 85 84 83 83 83 82 82 82 83 83 82
12 13 15 16 17 18 19 19 21 22 25 27 30 31 32 33 35 38 41 44 47 50 52 54 59 62 62 61 62 65 69 74 80 86 90 95 100 101 101 102 103 102 101 101 101 100 96 93 93 92 89 88 89 89 88 86 85 86 86 87 87 86 86 86 85 84 83 82 83 83 82 82 83 83
12 12 13 14 15 16 17 18 19 20 22 24 27 30 32 34 35 37 38 41 44 47 50 52 55 60 63 62 62 63 66 70 75 79 82 85 90 95 98 99 99 100 100 98 97 99 99 97 94 93 89 85 83 85 86 85 85 86 87 87 88 88 87 87 86 86 84 83 83 83 84 83 83 83
12 12 12 12 13 14 15 16 17 18 20 22 24 27 29 31 33 35 37 39 42 46 48 51 53 57 61 63 64 64 65 68 72 75 77 80 82 86 91 94 96 98 98 97 95 95 97 97 97 95 92 87 83 83 87 88 88 89 90 90 89 89 88 88 88 88 87 86 84 84 84 85 84 84
11 11 11 11 11 12 12 13 15 16 18 19 21 23 25 26 28 29 31 34 38 42 45 48 50 54 59 63 64 66 67 68 70 72 75 78 79 81 83 87 91 93 95 97 97 95 95 96 97 97 95 91 86 84 87 89 89 90 93 94 93 90 88 87 88 89 90 89 88 86 85 85 86 86
10 10 10 11 11 11 12 12 13 15 16 17 19 20 22 23 24 25 26 28 32 36 40 44 47 51 55 60 64 66 68 69 70 71 73 77 80 82 83 85 88 91 93 95 97 96 96 96 97 97 95 92 89 87 86 88 87 87 90 93 94 93 90 87 86 87 88 90 91 91 88 86 86 87
6 7 8 8 9 10 11 11 12 13 14 15 16 18 19 21 22 23 25 26 28 31 34 39 43 47 51 56 61 65 68 71 72 73 74 76 79 82 85 87 90 92 93 94 94 96 96 96 97 98 96 92 91 90 88 89 88 87 87 89 91 92 92 91 89 88 87 88 89 91 91 88 86 85
7 6 6 5 6 6 6 7 8 10 11 13 15 17 18 19 20 22 23 25 27 28 30 33 37 41 45 49 54 59 65 69 72 73 74 75 77 80 83 85 87 90 92 91 91 92 94 95 96 99 98 96 93 92 91 92 93 92 90 89 90 91 91 91 92 93 93 92 90 89 89 88 86 84
7 6 5 5 4 4 4 4 4 5 7 9 11 14 16 18 20 21 23 24 26 28 29 31 33 35 38 41 45 49 55 62 67 70 71 72 74 76 78 80 82 85 87 88 89 89 91 92 94 97 99 99 97 95 94 94 95 96 94 93 92 92 92 92 92 92 94 96 96 94 91 90 89 88
3 2 2 2 2 3 3 4 5 6 7 8 10 11 13 15 17 20 23 25 26 27 28 30 31 32 34 35 37 39 44 50 57 62 65 68 70 72 74 76 78 80 82 84 85 86 87 89 92 94 98 100 100 98 96 94 94 96 96 96 95 94 94 94 94 93 93 95 97 97 96 94 93 93
1 2 3 4 4 5 5 6 7 8 9 11 12 13 14 14 16 19 22 25 27 28 28 29 30 31 32 33 33 34 36 39 43 49 55 61 64 67 70 72 74 76 78 80 82 84 85 86 89 91 94 98 101 102 100 98 96 95 96 97 97 96 96 95 95 95 95 95 95 96 97 97 96 96
3 4 5 6 6 7 8 9 10 11 12 13 15 16 17 18 20 21 22 23 25 27 29 30 30 30 31 32 32 33 33 33 34 37 42 48 54 59 63 66 69 72 75 77 80 81 82 83 85 88 90 93 96 99 101 102 102 100 99 98 97 97 96 96 95 95 95 96 96 98 99 99 100 100
5 6 6 7 8 8 10 11 12 13 14 15 17 18 20 22 25 25 25 26 26 26 27 28 29 30 30 31 32 32 33 33 33 33 34 38 42 47 52 57 62 66 70 73 77 78 79 80 82 84 86 88 90 92 95 99 101 102 103 102 100 99 98 97 96 96 95 95 95 96 97 99 100 101
7 7 8 8 8 9 10 12 13 15 16 18 20 22 24 26 29 30 30 30 29 29 28 27 26 27 29 30 32 33 33 33 33 33 34 35 37 40 43 47 52 57 62 67 71 73 75 77 78 80 82 84 86 88 89 92 95 98 100 101 102 103 102 101 99 98 97 97 96 96 96 97 98 100
9 9 9 9 10 10 11 13 14 15 18 21 24 26 28 29 32 33 34 34 33 32 31 30 28 26 26 28 30 32 33 34 34 34 34 35 37 38 39 41 44 48 52 57 60 64 68 70 72 75 77 79 82 84 86 88 90 92 95 97 98 100 101 102 102 102 101 100 99 98 98 98 98 99
9 9 10 10 10 11 12 13 14 16 20 22 23 24 26 29 32 33 34 35 36 35 34 33 31 30 29 28 28 29 30 31 32 33 34 34 35 36 37 38 40 42 44 47 50 54 57 61 64 68 71 73 76 78 81 84 86 89 91 93 94 96 97 99 101 102 103 103 103 103 103 102 102 102
8 9 9 10 10 12 13 13 14 17 20 20 17 16 19 23 27 30 32 33 34 35 35 35 34 33 32 31 30 29 29 28 28 29 30 31 32 33 34 35 37 38 40 42 44 46 49 52 56 59 63 66 69 73 76 78 81 84 86 89 91 92 94 96 97 99 100 102 103 105 106 106 107 107
8 8 9 9 10 11 12 12 14 17 20 19 13 9 11 15 19 24 27 28 30 32 34 35 35 35 34 33 32 32 31 29 28 28 28 28 29 29 31 32 33 34 36 37 39 41 43 45 48 51 55 58 61 64 68 71 74 77 80 83 86 88 90 92 95 96 98 99 100 102 103 104 106 107
7 8 8 8 9 10 11 11 13 16 19 18 12 6 6 9 13 17 20 24 26 28 31 33 34 35 35 35 34 33 33 32 31 31 30 29 29 29 29 30 30 31 32 33 35 37 39 41 43 45 48 50 53 55 58 62 65 67 70 74 77 80 83 86 89 92 94 97 99 100 101 102 103 104
7 7 8 8 8 9 9 9 11 14 17 18 14 8 2 4 9 13 17 20 23 26 28 30 32 34 35 35 34 34 33 33 32 32 31 31 31 31 30 30 30 31 31 32 34 35 36 38 40 42 44 46 48 51 53 55 57 60 62 65 67 70 72 76 79 82 85 89 92 95 97 99 101 102
7 7 7 7 8 8 8 8 10 11 14 16 17 14 9 4 4 9 13 16 19 22 25 27 29 31 33 33 33 33 33 32 33 32 32 31 31 30 30 30 30 31 32 32 33 35 36 38 39 41 43 45 47 49 51 53 55 57 59 61 63 65 67 70 72 74 77 79 82 85 87 90 93 96
7 7 7 7 7 7 8 8 9 10 12 13 16 17 16 13 9 8 9 12 14 17 20 23 25 27 29 30 31 31 32 32 32 32 32 31 31 31 31 31 31 32 33 33 34 34 35 36 38 40 42 44 46 47 49 51 52 54 55 58 60 62 65 68 70 73 75 76 77 79 80 81 83 85
7 7 7 7 7 8 8 8 9 9 10 11 12 14 16 16 15 13 10 9 10 12 14 17 19 22 23 25 26 28 29 30 31 31 31 31 31 32 32 31 31 32 32 32 33 34 35 36 38 40 41 43 44 45 46 47 49 50 52 54 56 59 62 64 67 70 72 74 75 76 78 79 80 81
7 7 7 7 7 8 8 8 8 9 9 10 10 11 12 14 14 15 14 13 11 11 11 11 13 15 17 19 21 23 25 26 27 28 29 29 30 30 30 30 30 30 31 32 33 35 36 36 37 38 39 39 40 40 40 42 44 46 48 50 53 56 59 62 64 66 67 68 70 71 73 75 76 78
6 6 6 7 7 8 8 8 8 8 8 9 9 10 10 10 11 11 12 13 12 12 12 12 12 12 13 15 16 18 19 21 22 23 24 25 26 26 26 26 27 28 30 31 31 32 32 32 32 33 34 34 35 35 35 37 40 42 45 48 50 52 55 57 59 60 61 62 64 65 67 69 71 72
6 6 5 6 6 6 7 7 7 7 8 8 9 9 10 10 9 9 9 9 9 9 10 10 10 11 11 12 13 14 15 16 17 18 19 20 21 21 22 23 25 26 28 28 29 29 30 30 31 32 34 34 34 34 35 36 38 40 42 44 45 46 48 51 52 54 55 57 59 60 62 64 66 67
6 5 4 4 4 4 5 5 6 6 7 7 8 8 8 9 9 9 9 9 8 8 7 7 7 8 8 9 10 11 11 13 14 15 16 17 18 20 21 22 24 25 26 26 27 28 29 30 31 32 33 34 34 34 35 36 37 38 40 42 43 44 46 48 49 50 51 52 54 56 57 59 60 61
5 4 3 2 2 2 3 3 4 5 5 6 6 6 7 7 7 7 7 7 7 7 6 6 6 6 7 7 8 9 10 11 12 13 15 16 17 18 19 20 21 22 23 24 25 26 27 28 29 30 31 32 33 34 35 37 37 38 41 43 46 48 49 49 50 50 50 51 52 52 53 54 55 55
4 2 2 1 1 1 2 2 3 4 4 5 5 5 6 6 6 6 6 5 5 5 5 5 5 5 5 5 6 7 8 9 10 11 12 13 14 15 16 17 18 19 20 22 23 24 26 28 29 30 31 32 34 35 36 37 39 40 42 45 47 49 50 50 51 52 52 52 53 53 53 54 55 55
3 2 2 1 1 1 1 2 3 4 4 4 5 5 5 5 5 5 5 4 4 4 4 4 4 4 5 5 6 6 7 8 9 10 11 12 13 14 15 16 17 18 19 21 22 24 26 28 29 31 33 34 36 38 39 40 42 43 44 46 48 49 50 50 51 52 52 52 52 53 54 55 56 56
3 2 2 2 2 2 2 2 2 3 3 4 4 4 4 4 4 4 4 3 3 3 3 3 3 3 4 4 5 6 7 8 9 10 10 12 13 14 15 16 17 18 20 21 23 25 26 28 30 32 34 36 38 40 41 43 45 46 47 48 49 50 51 52 52 53 53 53 53 53 54 55 55 56
2 3 3 3 2 2 2 2 2 2 2 3 3 3 3 3 3 3 3 2 2 2 1 1 1 2 2 3 4 5 6 7 8 9 10 12 13 14 16 17 18 20 21 23 24 26 28 30 32 35 37 39 40 42 43 45 46 46 47 48 49 50 52 53 53 53 53 53 53 55 56 57 57 57
Wind_Direction
250 249 248 248 246 245 245 244 243 242 242 241 241 241 241 240 239 237 236 236 236 236 235 235 236 235 234 234 234 234 233 233 233 234 235 235 234 235 235 235 234 235 235 235 236 237 237 238 238 238 238 238 238 238 239 240 241 241 242 242 242 243 244 245 245 245 244 244 243 243 243 243 243 242
247 246 245 245 244 243 243 242 241 240 240 239 239 239 239 239 238 237 235 234 234 235 234 234 234 234 234 233 233 233 233 232 231 232 233 233 234 234 234 234 234 234 234 234 235 236 236 237 237 238 238 238 238 238 239 239 240 241 241 242 242 242 242 243 243 244 244 245 245 244 244 244 244 244
244 243 242 242 242 241 241 241 240 239 238 237 237 237 237 237 237 236 235 233 232 232 233 233 233 233 233 232 232 231 231 231 230 230 231 232 232 232 232 233 233 233 232 233 234 235 236 236 237 237 238 238 238 238 238 239 240 240 241 241 242 242 242 242 243 244 244 245 246 245 245 245 244 245
241 241 240 241 241 240 239 239 238 238 237 236 235 235 235 235 235 235 234 233 231 230 231 232 232 232 232 231 231 230 230 230 229 229 229 230 230 229 230 231 232 232 232 231 231 233 235 236 236 237 237 237 237 238 238 239 239 240 241 241 242 243 243 243 244 244 245 245 246 246 246 246 245 245
240 240 240 240 239 239 238 238 237 237 236 235 234 234 234 234 234 234 234 234 232 230 230 230 230 230 231 231 231 230 229 229 229 229 228 228 228 228 227 228 230 232 232 231 230 230 232 234 236 237 237 237 237 238 238 238 239 240 241 241 242 243 244 244 244 245 245 246 246 246 246 246 246 246
241 241 240 238 238 238 237 236 236 235 235 234 233 234 234 234 233 233 234 234 233 231 230 229 229 229 229 230 230 230 229 228 228 228 228 227 228 228 227 227 227 229 231 232 231 230 230 231 233 235 237 238 238 238 238 238 238 239 240 241 241 242 243 244 245 245 245 245 246 246 246 245 245 246
240 241 240 237 236 235 234 234 233 233 232 232 232 232 233 233 233 233 233 233 233 232 230 230 229 228 228 228 229 229 229 228 227 227 227 227 227 227 227 227 226 226 228 230 231 232 231 231 232 233 235 236 238 239 239 238 238 238 239 240 240 241 242 243 244 245 245 245 246 246 247 246 245 245
235 236 235 233 232 232 232 230 230 230 230 230 230 230 231 231 231 231 231 232 232 232 231 230 230 229 228 227 227 228 228 228 227 226 226 226 226 226 226 226 226 226 226 228 229 230 231 232 233 233 233 234 236 238 239 239 239 239 238 239 239 240 241 242 243 244 245 245 246 246 247 247 247 245
229 229 229 228 229 231 230 229 229 228 228 228 227 227 227 228 228 228 228 229 230 231 231 231 230 230 229 228 227 227 227 227 227 226 226 225 225 225 225 226 226 226 226 227 228 228 228 230 231 232 232 233 234 236 238 239 239 239 239 238 239 239 240 241 242 244 244 245 245 245 246 247 247 247
224 224 225 225 228 229 227 226 227 227 226 226 224 223 223 223 223 223 224 224 225 227 228 228 229 229 229 229 227 226 226 226 226 226 226 225 225 225 225 226 226 226 226 227 228 229 229 228 229 231 232 232 234 235 237 238 239 239 240 239 239 239 239 240 241 243 244 244 245 245 245 246 247 247
223 221 221 222 225 225 223 222 223 224 224 224 222 220 218 217 217 219 220 219 220 222 223 225 225 226 227 229 228 227 226 226 226 225 225 225 225 225 225 226 226 227 228 228 228 230 231 230 229 230 231 231 232 234 235 237 239 239 240 240 240 239 239 240 240 241 242 243 244 244 244 245 246 247
222 220 219 220 221 222 220 219 220 220 222 222 222 220 217 215 215 216 216 217 219 220 220 221 221 220 221 224 226 226 226 226 226 226 225 225 225 225 225 225 226 226 227 228 229 230 231 232 231 231 231 231 231 232 233 234 237 239 240 241 241 241 241 240 240 241 241 242 243 243 243 244 245 246
217 217 218 218 220 220 219 219 218 216 216 217 219 220 220 218 217 217 218 219 221 221 220 220 218 216 217 219 221 224 225 225 225 225 225 225 224 224 224 224 225 225 226 227 228 228 230 231 233 233 232 232 232 233 233 234 236 239 241 243 243 244 243 242 242 241 241 241 242 242 243 243 243 244
213 214 216 217 218 219 220 221 220 218 215 214 214 217 220 221 223 223 224 224 225 224 221 220 217 216 217 220 222 223 225 225 225 225 225 225 225 224 224 224 224 225 225 226 226 226 226 227 230 232 233 233 234 234 235 235 236 239 241 242 243 243 243 242 242 242 241 241 241 242 242 243 243 243
209 211 215 217 219 219 219 221 222 221 220 217 215 215 217 219 222 225 226 226 227 227 224 221 219 218 218 221 223 225 225 225 225 225 225 225 226 225 224 225 225 225 225 226 227 227 226 226 227 229 231 232 233 234 234 235 235 236 238 240 241 240 239 239 239 240 241 241 240 240 241 242 242 243
206 209 214 217 220 221 221 221 221 221 221 221 220 219 219 219 220 221 222 222 223 225 226 224 222 220 220 220 222 224 226 225 225 224 223 224 225 226 225 224 225 226 225 225 226 227 227 226 226 227 229 229 231 232 233 234 235 235 236 237 238 238 238 237 236 237 239 240 240 240 240 240 241 242
202 205 210 214 217 218 221 223 224 223 222 221 221 222 223 224 225 225 224 222 222 223 224 224 222 220 220 221 222 223 225 226 225 224 223 222 223 225 226 225 224 225 225 225 225 225 226 225 225 226 227 227 228 229 230 231 232 233 235 235 235 236 237 237 237 236 237 239 240 240 240 240 240 241
199 200 204 207 210 213 217 221 224 225 226 226 225 225 226 227 228 229 228 226 224 224 225 225 223 221 220 221 222 223 224 226 226 225 223 222 221 222 224 225 225 224 225 225 224 224 224 224 223 224 226 227 226 227 229 229 229 229 232 234 234 234 234 235 236 236 236 238 239 240 241 241 241 241
197 200 204 207 209 211 213 216 219 220 222 225 227 228 229 229 230 230 228 227 225 224 224 224 224 222 221 221 221 222 223 225 226 226 223 221 220 220 221 224 225 225 224 224 225 225 225 224 223 223 225 227 227 227 228 229 228 227 228 230 232 232 231 231 232 233 234 236 237 237 238 240 241 241
187 195 203 209 214 218 221 223 225 226 227 227 227 227 228 229 229 229 229 228 226 224 224 223 223 223 223 222 221 221 222 224 225 226 225 223 221 221 222 224 226 226 226 225 225 226 226 226 224 223 224 227 228 229 229 229 229 228 228 228 229 230 230 231 232 233 233 234 235 235 235 236 238 239
132 142 154 167 182 197 210 218 225 230 234 235 235 233 231 230 229 227 227 227 226 225 224 224 224 225 225 226 225 223 223 225 226 226 227 226 224 224 224 226 227 229 229 228 227 227 227 227 227 225 224 226 228 230 231 231 232 232 231 230 230 231 231 231 232 233 234 235 235 235 235 235 236 237
112 117 124 133 146 162 178 195 210 219 225 231 235 236 237 236 234 230 227 227 226 224 224 223 224 225 227 228 229 227 226 226 228 228 228 228 227 226 226 227 228 229 231 231 230 229 228 229 229 228 226 226 228 230 231 233 234 235 235 234 234 234 234 233 234 234 235 236 237 238 237 237 237 239
105 118 148 181 205 216 222 228 235 236 234 235 235 234 235 236 236 234 231 230 229 227 225 224 224 225 226 228 229 230 229 229 229 230 230 230 230 228 228 228 228 229 231 233 233 232 230 230 231 230 229 228 228 230 231 233 234 236 237 237 237 237 237 238 238 238 238 237 238 239 240 240 240 241
260 261 263 263 262 263 260 256 253 251 247 245 244 241 238 235 233 231 230 230 230 229 228 227 226 225 226 227 227 228 229 230 230 230 231 232 232 231 230 229 229 229 230 232 234 234 232 231 232 232 232 231 231 231 232 233 235 236 237 238 239 240 240 241 242 243 243 242 242 242 242 243 243 243
278 272 268 266 266 267 268 265 262 260 255 250 248 247 243 240 237 233 230 229 229 230 230 230 229 228 228 227 227 227 227 228 227 227 228 230 231 232 232 232 231 231 230 231 233 235 234 234 233 233 234 234 234 234 234 235 236 237 238 239 240 241 242 243 244 244 245 245 246 246 246 245 245 245
285 277 269 264 261 260 263 267 268 267 263 259 256 252 247 242 240 237 233 230 228 227 229 230 230 231 230 229 228 228 228 227 226 224 224 225 227 229 231 232 232 233 232 233 234 234 235 235 235 235 235 236 236 236 237 237 238 239 240 241 242 243 244 244 245 245 245 245 245 246 246 246 246 246
290 285 281 277 272 268 271 274 276 277 278 277 273 265 256 247 242 238 234 231 229 226 225 226 226 227 229 229 228 227 228 228 227 226 224 223 223 224 225 227 230 232 233 234 235 235 236 237 237 237 237 237 237 237 238 239 239 240 241 241 242 243 244 244 245 246 246 246 246 245 245 245 245 245
305 299 294 289 281 278 281 283 286 290 290 287 279 270 260 250 244 239 235 231 229 227 225 223 222 223 224 225 226 226 226 226 226 226 226 225 224 223 223 224 226 229 231 233 235 236 237 238 239 240 240 239 239 239 239 239 240 240 241 241 242 243 243 244 244 245 245 246 246 246 245 245 244 244
313 308 302 295 290 290 292 294 297 300 299 294 284 270 258 248 241 237 235 231 228 227 225 223 221 221 221 222 223 224 225 225 225 226 227 228 227 227 226 226 226 228 230 232 233 235 236 238 239 240 241 242 242 242 241 242 242 242 242 242 242 243 243 244 244 245 245 245 246 246 246 246 245 245
322 319 313 307 304 304 303 303 305 310 313 311 297 273 255 245 237 232 231 230 227 226 225 224 223 221 221 221 221 222 223 223 223 224 225 226 227 228 228 228 228 229 230 231 232 233 234 236 238 239 241 242 243 243 244 244 244 245 245 245 245 245 245 245 245 245 246 246 246 246 247 247 247 247
328 326 321 316 312 310 308 309 315 324 332 334 320 284 259 245 232 224 224 225 224 222 223 224 224 223 222 221 221 222 222 222 222 222 222 223 224 225 226 227 228 229 231 232 233 234 234 235 237 238 239 240 241 242 243 244 245 245 246 246 246 247 247 247 247 247 247 247 247 247 247 248 248 248
337 335 330 322 317 315 315 319 327 337 349 355 350 318 273 243 222 214 214 216 217 217 217 219 221 223 223 222 222 222 222 222 222 222 222 222 223 224 225 227 228 229 231 233 234 236 237 237 238 239 240 241 241 242 242 243 244 244 245 246 246 246 247 247 247 248 248 248 248 249 249 249 249 249
346 345 338 330 327 325 325 332 339 347 359 12 18 15 333 232 209 204 205 207 210 212 213 215 217 220 222 222 223 223 223 223 224 224 223 224 225 226 227 229 230 232 233 235 237 239 240 240 241 242 242 242 243 243 244 244 244 245 245 246 246 246 246 247 247 247 247 248 248 248 249 249 250 250
357 354 346 342 341 339 339 346 351 354 6 22 34 41 51 79 154 179 188 195 201 204 207 209 212 215 218 220 222 223 224 225 226 226 225 226 227 228 229 231 233 235 237 239 241 242 243 243 244 244 244 244 244 244 244 245 245 245 246 246 246 246 246 247 247 247 247 247 248 248 248 248 249 249
7 2 356 353 354 353 354 1 6 6 11 24 38 49 57 67 85 118 151 171 183 191 197 203 207 211 214 217 219 221 223 225 226 227 227 228 228 229 230 232 234 237 240 241 242 244 244 245 246 246 246 246 245 246 246 246 246 246 247 247 247 247 247 247 247 247 247 248 248 248 248 248 249 249
11 8 4 2 3 4 7 12 21 26 24 26 37 50 60 68 75 86 104 128 152 171 184 194 200 205 209 212 215 217 220 222 224 225 226 227 228 229 230 232 234 237 239 240 242 244 246 247 249 250 250 250 250 250 250 251 251 251 251 251 251 250 250 250 250 249 249 249 250 250 250 250 250 250
13 13 12 10 10 13 17 20 28 40 44 42 43 51 61 70 78 85 93 103 116 133 151 167 180 189 196 201 205 209 213 216 218 221 223 225 226 227 229 230 232 234 237 240 244 247 250 251 252 253 253 254 254 253 253 253 254 254 253 253 253 253 253 253 253 253 253 253 253 253 253 252 252 252
5 8 11 13 15 20 26 28 30 39 50 58 61 62 66 73 80 88 95 102 109 117 127 137 148 158 169 178 185 192 198 202 206 210 213 216 219 222 225 228 232 236 240 244 247 249 251 252 253 254 255 255 254 253 252 252 252 253 253 253 253 254 255 256 256 257 256 256 256 256 255 255 254 254
352 354 360 7 13 21 30 36 38 38 42 51 61 68 73 78 83 88 95 103 110 117 125 132 139 147 155 163 170 178 184 190 196 201 207 212 218 223 227 232 235 238 241 244 246 248 250 252 253 254 255 255 254 253 252 251 250 251 252 254 255 256 257 257 258 257 256 256 255 255 255 256 256 256
341 345 351 358 8 19 28 38 46 48 47 47 52 59 65 71 77 84 92 99 107 116 127 137 146 156 163 171 179 186 192 198 204 209 215 220 224 228 231 234 237 238 241 243 246 248 251 253 253 254 255 256 257 257 256 255 255 255 256 258 258 258 256 256 256 256 255 255 255 255 255 256 256 257
326 330 338 347 359 16 32 44 54 61 62 60 61 63 67 69 72 76 82 89 97 106 117 129 142 154 166 178 188 195 202 208 212 217 221 224 227 230 233 235 237 240 242 244 247 249 251 253 255 256 258 260 261 261 260 260 260 259 258 258 258 257 257 257 257 257 257 257 257 257 257 257 257 257
306 296 291 300 342 13 43 60 67 70 71 70 71 72 76 80 83 87 90 95 100 107 116 125 136 148 163 177 189 198 206 213 218 222 225 229 231 234 237 240 242 245 247 249 251 253 255 257 259 260 261 262 262 262 262 262 261 260 258 258 258 258 258 259 259 260 260 259 259 259 259 258 258 258
285 266 243 218 194 139 88 77 73 71 71 72 72 72 74 78 82 87 93 101 110 122 134 145 155 168 179 190 201 209 215 221 225 229 232 235 237 240 243 246 248 250 253 255 256 257 259 260 262 263 263 264 264 264 264 263 263 262 261 261 261 261 261 262 262 262 262 262 261 261 261 260 260 259
260 237 213 190 166 136 108 92 83 79 77 77 77 78 81 82 83 85 88 95 105 117 131 148 165 180 192 202 212 218 224 229 233 236 239 243 245 248 251 253 255 257 259 260 261 262 263 264 265 266 266 266 266 267 267 266 266 266 265 265 265 265 264 264 263 263 262 263 263 263 262 262 261 261
218 199 184 172 157 135 116 98 91 89 86 86 86 87 89 90 90 94 97 101 107 119 133 153 185 209 223 232 238 242 245 247 250 252 254 256 258 260 262 263 265 266 267 268 268 269 269 269 269 269 269 269 270 270 270 270 271 271 271 271 270 269 268 268 267 267 266 266 265 264 263 262 261 261